Home   Weather   Deltona   Past weeks
Flag for USA

Past Weather in Deltona, Florida, USA — Yesterday and Last 2 Weeks

Now
85 °F

Passing clouds.


Feels Like: 91 °F
Forecast: 86 / 71 °F
Wind: 14 mph from West

Location: Orlando / Sanford Airport

Current Time: Oct 20, 2019 at 1:45:30 pm

Latest Report: Oct 20, 2019 at 12:53 pm


Visibility: 10 mi

Pressure: 29.93 "Hg

Humidity: 65%

Dew Point: 72 °F

Location of DeltonaLocation

Past Weather in Deltona — Graph

°F

Deltona Temperature Yesterday

Maximum temperature yesterday: 85 °F (at 4:53 pm)
Minimum temperature yesterday: 72 °F (at 11:53 am)
Average temperature yesterday: 76 °F

High & Low Weather Summary for the Past Weeks

 TemperatureHumidityPressure
High90 °F (Oct 5, 1:53 pm)100% (Oct 7, 6:04 am)30.09 "Hg (Oct 7, 6:04 am)
Low66 °F (Oct 12, 5:53 am)43% (Oct 12, 3:53 pm)29.73 "Hg (Oct 19, 4:53 pm)
Average76 °F83%29.95 "Hg
* Reported Oct 5 11:53 am — Oct 20 11:53 am, Deltona. Weather by CustomWeather, © 2019

Note: Actual official high and low records may vary slightly from our data, if they occured in-between our weather recording intervals... More about our weather records

Advertising

Deltona Weather History for the Previous 24 Hours

Scroll right to see more
 ConditionsComfort  
Time TempWeatherWind HumidityBarometerVisibility
11:53 am
Sun, Oct 20
84 °FBroken clouds.14 mph67%29.93 "Hg10 mi
11:10 am82 °FScattered clouds.15 mph74%29.93 "Hg10 mi
10:53 am80 °FPartly sunny.10 mph79%29.93 "Hg10 mi
9:53 am78 °FMostly cloudy.12 mph84%29.92 "Hg10 mi
9:16 am77 °FPartly sunny.9 mph88%29.91 "Hg10 mi
8:53 am76 °FSunny.7 mph91%29.90 "Hg10 mi
7:53 am75 °FSunny.5 mph90%29.87 "Hg10 mi
6:53 am75 °FClear.7 mph90%29.84 "Hg10 mi
5:53 am76 °FClear.9 mph91%29.82 "Hg10 mi
4:53 am76 °FClear.12 mph91%29.80 "Hg10 mi
3:53 am77 °FClear.12 mph90%29.80 "Hg10 mi
2:53 am77 °FClear.10 mph90%29.81 "Hg10 mi
1:53 am78 °FPartly cloudy.8 mph87%29.81 "Hg10 mi
12:53 am78 °FPassing clouds.10 mph87%29.81 "Hg10 mi
12:05 am78 °FPassing clouds.10 mph87%29.82 "Hg10 mi
11:53 pm
Sat, Oct 19
78 °FLight rain. Partly cloudy.8 mph87%29.82 "Hg10 mi
10:53 pm79 °FPassing clouds.12 mph82%29.82 "Hg10 mi
9:53 pm79 °FPassing clouds.10 mph82%29.80 "Hg10 mi
8:53 pm80 °FClear.12 mph79%29.78 "Hg10 mi
7:53 pm80 °FPassing clouds.8 mph81%29.77 "Hg10 mi
7:18 pm80 °FPartly cloudy.7 mph85%29.77 "Hg10 mi
6:53 pm80 °FPassing clouds.9 mph85%29.75 "Hg10 mi
5:53 pm81 °FLight rain. Mostly cloudy.9 mph79%29.75 "Hg4 mi
4:53 pm85 °FPassing clouds.10 mph63%29.73 "Hg10 mi
3:53 pm83 °FBroken clouds.13 mph65%29.75 "Hg10 mi
2:53 pm82 °FBroken clouds.14 mph72%29.76 "Hg10 mi
1:53 pm79 °FMostly cloudy.12 mph79%29.79 "Hg10 mi
Weather by CustomWeather, © 2019

See weather overview